N750XP KSFO-KSBA

Flight info

Callsign N750XP
Flight time 0h 48m
Altitude 31000
Route WESLA5 YYUNG GVO HABUT
Aircraft C750/M-SBDE3FGHRWXY/S

Departure

Time 2026-05-03 23:21
Airport San Francisco International Airport (KSFO)

Arrival

Time 2026-05-04 00:09
Airport Santa Barbara Municipal Airport (KSBA)
Time Latitude Longitude Altitude Speed Heading
2026-05-03 23:06 37.62909 -122.38867 14 ft 0 kts 207°
2026-05-03 23:10 37.62902 -122.38868 14 ft 5 kts 168°
2026-05-03 23:11 37.62846 -122.38760 15 ft 15 kts 141°
2026-05-03 23:11 37.62763 -122.38701 17 ft 16 kts 116°
2026-05-03 23:11 37.62698 -122.38548 18 ft 23 kts 120°
2026-05-03 23:11 37.62611 -122.38342 20 ft 29 kts 116°
2026-05-03 23:12 37.62502 -122.38094 22 ft 35 kts 122°
2026-05-03 23:12 37.62387 -122.37800 21 ft 41 kts 128°
2026-05-03 23:12 37.62238 -122.37475 16 ft 43 kts 121°
2026-05-03 23:12 37.62099 -122.37133 12 ft 43 kts 116°
2026-05-03 23:13 37.61959 -122.36790 9 ft 43 kts 117°
2026-05-03 23:13 37.61821 -122.36460 9 ft 42 kts 117°
2026-05-03 23:13 37.61683 -122.36137 6 ft 41 kts 122°
2026-05-03 23:13 37.61573 -122.35868 6 ft 11 kts 117°
2026-05-03 23:14 37.61534 -122.35776 6 ft 12 kts 118°
2026-05-03 23:14 37.61491 -122.35689 6 ft 2 kts 144°
2026-05-03 23:18 37.61483 -122.35683 6 ft 8 kts 154°
2026-05-03 23:18 37.61340 -122.35747 6 ft 30 kts 210°
2026-05-03 23:18 37.61272 -122.35790 6 ft 0 kts 202°
2026-05-03 23:19 37.61270 -122.35791 6 ft 1 kts 202°
2026-05-03 23:20 37.61220 -122.35825 6 ft 15 kts 231°
2026-05-03 23:20 37.61251 -122.36028 6 ft 40 kts 296°
2026-05-03 23:20 37.61497 -122.36618 9 ft 124 kts 296°
2026-05-03 23:20 37.62012 -122.37887 411 ft 189 kts 295°
2026-05-03 23:21 37.62651 -122.39419 1545 ft 217 kts 295°
2026-05-03 23:21 37.63360 -122.41183 2732 ft 250 kts 295°
2026-05-03 23:21 37.64258 -122.43108 4268 ft 269 kts 300°
2026-05-03 23:21 37.65170 -122.45152 5877 ft 281 kts 298°
2026-05-03 23:22 37.67000 -122.49523 9009 ft 296 kts 287°
2026-05-03 23:22 37.67051 -122.52033 10443 ft 299 kts 253°
2026-05-03 23:22 37.66059 -122.54411 11285 ft 322 kts 224°
2026-05-03 23:23 37.64164 -122.55895 12403 ft 330 kts 194°
2026-05-03 23:23 37.61912 -122.56004 13765 ft 330 kts 166°
2026-05-03 23:23 37.59911 -122.54742 15148 ft 330 kts 139°
2026-05-03 23:23 37.58183 -122.52883 16407 ft 337 kts 149°
2026-05-03 23:24 37.56019 -122.51695 17645 ft 343 kts 153°
2026-05-03 23:24 37.53899 -122.50377 18810 ft 349 kts 154°
2026-05-03 23:24 37.51677 -122.49104 19963 ft 354 kts 156°
2026-05-03 23:24 37.49343 -122.48188 21087 ft 361 kts 165°
2026-05-03 23:25 37.46833 -122.47736 22147 ft 369 kts 173°
2026-05-03 23:25 37.44268 -122.47774 23183 ft 377 kts 182°
2026-05-03 23:25 37.41663 -122.48359 24155 ft 386 kts 192°
2026-05-03 23:25 37.39080 -122.49274 25158 ft 387 kts 190°
2026-05-03 23:26 37.36428 -122.49781 26107 ft 388 kts 186°
2026-05-03 23:26 37.33746 -122.50292 26964 ft 392 kts 187°
2026-05-03 23:26 37.31039 -122.50781 27709 ft 398 kts 188°
2026-05-03 23:26 37.28301 -122.51297 28522 ft 401 kts 188°
2026-05-03 23:27 37.25549 -122.51806 29250 ft 406 kts 189°
2026-05-03 23:27 37.22731 -122.52328 29863 ft 412 kts 190°
2026-05-03 23:27 37.19902 -122.52850 30627 ft 412 kts 191°
2026-05-03 23:27 37.17022 -122.53387 30893 ft 426 kts 191°
2026-05-03 23:28 37.14037 -122.53943 30956 ft 444 kts 191°
2026-05-03 23:28 37.10892 -122.54527 30959 ft 463 kts 191°
2026-05-03 23:28 37.07635 -122.55085 30945 ft 481 kts 188°
2026-05-03 23:28 37.04184 -122.55229 30957 ft 498 kts 181°
2026-05-03 23:29 36.97342 -122.53979 30941 ft 502 kts 169°
2026-05-03 23:29 36.90801 -122.50808 30951 ft 507 kts 156°
2026-05-03 23:30 36.85025 -122.45706 30948 ft 514 kts 143°
2026-05-03 23:30 36.79222 -122.40641 30956 ft 504 kts 155°
2026-05-03 23:31 36.73173 -122.36262 30962 ft 504 kts 155°
2026-05-03 23:31 36.67137 -122.31850 30943 ft 504 kts 155°
2026-05-03 23:32 36.61090 -122.27448 30959 ft 504 kts 155°
2026-05-03 23:32 36.55030 -122.23020 30950 ft 504 kts 156°
2026-05-03 23:33 36.48974 -122.18631 30953 ft 504 kts 157°
2026-05-03 23:33 36.42921 -122.14246 30956 ft 505 kts 157°
2026-05-03 23:34 36.36877 -122.09860 30957 ft 505 kts 158°
2026-05-03 23:34 36.30808 -122.05472 30947 ft 505 kts 158°
2026-05-03 23:35 36.24732 -122.01092 30961 ft 506 kts 159°
2026-05-03 23:35 36.18644 -121.96706 30953 ft 506 kts 159°
2026-05-03 23:36 36.12587 -121.92355 30954 ft 507 kts 159°
2026-05-03 23:36 36.06491 -121.87972 30954 ft 506 kts 160°
2026-05-03 23:37 36.00518 -121.83181 30945 ft 523 kts 152°
2026-05-03 23:37 35.95343 -121.76720 30946 ft 545 kts 138°
2026-05-03 23:38 35.90951 -121.69017 30949 ft 548 kts 136°
2026-05-03 23:38 35.86310 -121.61546 30962 ft 547 kts 137°
2026-05-03 23:39 35.81660 -121.54164 30958 ft 549 kts 137°
2026-05-03 23:39 35.76944 -121.46700 30956 ft 551 kts 137°
2026-05-03 23:40 35.72258 -121.39303 30964 ft 552 kts 137°
2026-05-03 23:40 35.67519 -121.31831 30940 ft 553 kts 138°
2026-05-03 23:41 35.62781 -121.24389 30937 ft 553 kts 138°
2026-05-03 23:41 35.58052 -121.16966 30942 ft 553 kts 138°
2026-05-03 23:42 35.53303 -121.09551 30941 ft 551 kts 139°
2026-05-03 23:42 35.50779 -121.06142 30940 ft 540 kts 146°
2026-05-03 23:42 35.47996 -121.03129 30935 ft 529 kts 153°
2026-05-03 23:43 35.42236 -120.97429 30949 ft 531 kts 152°
2026-05-03 23:43 35.36547 -120.91725 30964 ft 531 kts 152°
2026-05-03 23:44 35.30852 -120.86013 30969 ft 531 kts 152°
2026-05-03 23:44 35.25201 -120.80338 30964 ft 508 kts 152°
2026-05-03 23:45 35.22550 -120.77678 30964 ft 487 kts 153°
2026-05-03 23:45 35.19975 -120.75109 30471 ft 481 kts 153°
2026-05-03 23:45 35.17390 -120.72546 29858 ft 478 kts 153°
2026-05-03 23:45 35.14809 -120.69979 29198 ft 476 kts 153°
2026-05-03 23:46 35.12268 -120.67454 28465 ft 476 kts 152°
2026-05-03 23:46 35.09723 -120.64925 27738 ft 474 kts 152°
2026-05-03 23:46 35.07167 -120.62378 27239 ft 465 kts 152°
2026-05-03 23:46 35.04696 -120.59920 26594 ft 462 kts 152°
2026-05-03 23:47 35.02194 -120.57438 25961 ft 459 kts 151°
2026-05-03 23:47 34.99783 -120.55036 25401 ft 453 kts 151°
2026-05-03 23:47 34.97346 -120.52631 24789 ft 449 kts 151°
2026-05-03 23:47 34.94921 -120.50224 24301 ft 442 kts 150°
2026-05-03 23:48 34.92542 -120.47868 23516 ft 444 kts 150°
2026-05-03 23:48 34.90165 -120.45525 22844 ft 442 kts 150°
2026-05-03 23:48 34.87796 -120.43190 22161 ft 440 kts 149°
2026-05-03 23:48 34.85429 -120.40861 21408 ft 440 kts 148°
2026-05-03 23:49 34.83111 -120.38571 20730 ft 429 kts 147°
2026-05-03 23:49 34.80859 -120.36344 20073 ft 407 kts 146°
2026-05-03 23:49 34.78708 -120.34223 19321 ft 388 kts 147°
2026-05-03 23:49 34.76650 -120.32197 18606 ft 371 kts 146°
2026-05-03 23:50 34.74685 -120.30264 17936 ft 356 kts 144°
2026-05-03 23:50 34.72817 -120.28419 17299 ft 342 kts 144°
2026-05-03 23:50 34.71032 -120.26649 16700 ft 328 kts 145°
2026-05-03 23:50 34.69280 -120.24932 16123 ft 317 kts 145°
2026-05-03 23:51 34.67603 -120.23282 15576 ft 307 kts 145°
2026-05-03 23:51 34.65976 -120.21687 15028 ft 298 kts 145°
2026-05-03 23:51 34.64385 -120.20129 14487 ft 290 kts 145°
2026-05-03 23:51 34.62820 -120.18595 13930 ft 284 kts 144°
2026-05-03 23:52 34.61325 -120.17129 13413 ft 277 kts 144°
2026-05-03 23:52 34.59832 -120.15668 12884 ft 272 kts 144°
2026-05-03 23:52 34.58382 -120.14248 12362 ft 268 kts 144°
2026-05-03 23:52 34.56972 -120.12784 11828 ft 265 kts 140°
2026-05-03 23:53 34.55685 -120.11327 11730 ft 244 kts 141°
2026-05-03 23:53 34.54498 -120.09965 11631 ft 227 kts 140°
2026-05-03 23:53 34.53348 -120.08639 11316 ft 230 kts 140°
2026-05-03 23:53 34.52142 -120.07257 11011 ft 250 kts 140°
2026-05-03 23:54 34.50812 -120.05769 10727 ft 273 kts 140°
2026-05-03 23:54 34.49356 -120.04147 10427 ft 293 kts 140°
2026-05-03 23:54 34.47794 -120.02430 10116 ft 309 kts 140°
2026-05-03 23:54 34.46185 -120.00665 9800 ft 322 kts 140°
2026-05-03 23:55 34.44472 -119.98807 9471 ft 333 kts 140°
2026-05-03 23:55 34.42747 -119.96927 9145 ft 341 kts 140°
2026-05-03 23:55 34.40946 -119.94988 8815 ft 348 kts 140°
2026-05-03 23:55 34.39132 -119.93034 8485 ft 342 kts 140°
2026-05-03 23:56 34.37465 -119.91241 8009 ft 303 kts 140°
2026-05-03 23:56 34.35979 -119.89642 7614 ft 273 kts 140°
2026-05-03 23:56 34.34569 -119.88114 7308 ft 274 kts 140°
2026-05-03 23:56 34.33134 -119.86573 6976 ft 275 kts 140°
2026-05-03 23:57 34.31743 -119.85107 6613 ft 263 kts 140°
2026-05-03 23:57 34.30391 -119.83672 6244 ft 253 kts 140°
2026-05-03 23:57 34.29093 -119.82303 5883 ft 246 kts 140°
2026-05-03 23:57 34.27810 -119.80949 5502 ft 240 kts 140°
2026-05-03 23:58 34.26573 -119.79636 5122 ft 236 kts 140°
2026-05-03 23:58 34.25351 -119.78339 4744 ft 232 kts 140°
2026-05-03 23:58 34.24144 -119.77059 4360 ft 230 kts 140°
2026-05-03 23:58 34.23018 -119.75706 3977 ft 229 kts 123°
2026-05-03 23:59 34.22674 -119.73882 3624 ft 226 kts 79°
2026-05-03 23:59 34.23328 -119.72201 3298 ft 222 kts 52°
2026-05-03 23:59 34.24218 -119.70695 2943 ft 223 kts 51°
2026-05-03 23:59 34.25124 -119.69170 2576 ft 225 kts 51°
2026-05-04 00:00 34.26155 -119.67763 2187 ft 223 kts 30°
2026-05-04 00:00 34.27556 -119.67043 1980 ft 213 kts 20°
2026-05-04 00:00 34.28577 -119.65855 1937 ft 207 kts 66°
2026-05-04 00:00 34.28615 -119.64133 1962 ft 210 kts 110°
2026-05-04 00:01 34.27920 -119.62570 1962 ft 211 kts 121°
2026-05-04 00:01 34.27169 -119.61036 1945 ft 213 kts 121°
2026-05-04 00:01 34.26411 -119.59486 1947 ft 214 kts 121°
2026-05-04 00:01 34.25725 -119.57916 2002 ft 207 kts 107°
2026-05-04 00:02 34.25803 -119.56273 1950 ft 197 kts 63°
2026-05-04 00:02 34.26739 -119.55180 1938 ft 181 kts 17°
2026-05-04 00:02 34.27903 -119.55178 1986 ft 168 kts 334°
2026-05-04 00:02 34.28905 -119.55936 1983 ft 172 kts 322°
2026-05-04 00:03 34.29860 -119.56828 1965 ft 176 kts 316°
2026-05-04 00:03 34.30757 -119.57870 1958 ft 178 kts 311°
2026-05-04 00:03 34.31575 -119.58992 1963 ft 178 kts 308°
2026-05-04 00:03 34.32340 -119.60178 1964 ft 179 kts 305°
2026-05-04 00:04 34.33054 -119.61401 1966 ft 179 kts 302°
2026-05-04 00:04 34.33734 -119.62665 1971 ft 178 kts 300°
2026-05-04 00:04 34.34382 -119.63946 1972 ft 178 kts 298°
2026-05-04 00:04 34.35007 -119.65246 1915 ft 179 kts 298°
2026-05-04 00:05 34.35616 -119.66562 1781 ft 178 kts 297°
2026-05-04 00:05 34.36205 -119.67877 1682 ft 177 kts 296°
2026-05-04 00:05 34.36774 -119.69173 1663 ft 172 kts 296°
2026-05-04 00:05 34.37317 -119.70428 1662 ft 168 kts 295°
2026-05-04 00:06 34.37854 -119.71683 1669 ft 165 kts 296°
2026-05-04 00:06 34.38379 -119.72931 1680 ft 167 kts 295°
2026-05-04 00:06 34.38905 -119.74191 1646 ft 172 kts 295°
2026-05-04 00:06 34.39429 -119.75448 1457 ft 159 kts 295°
2026-05-04 00:07 34.39897 -119.76569 1234 ft 141 kts 295°
2026-05-04 00:07 34.40328 -119.77576 1066 ft 129 kts 296°
2026-05-04 00:07 34.40752 -119.78514 850 ft 127 kts 295°
2026-05-04 00:07 34.41173 -119.79447 722 ft 124 kts 295°
2026-05-04 00:08 34.41589 -119.80353 598 ft 126 kts 296°
2026-05-04 00:08 34.42026 -119.81305 512 ft 131 kts 297°
2026-05-04 00:08 34.42465 -119.82243 340 ft 122 kts 293°
2026-05-04 00:08 34.42747 -119.83173 119 ft 116 kts 278°
2026-05-04 00:09 34.42774 -119.84108 28 ft 104 kts 266°
2026-05-04 00:09 34.42762 -119.84673 27 ft 41 kts 269°
2026-05-04 00:09 34.42756 -119.84983 27 ft 33 kts 272°
2026-05-04 00:09 34.42717 -119.85171 27 ft 15 kts 206°
2026-05-04 00:10 34.42667 -119.85164 27 ft 3 kts 145°
2026-05-04 00:10 34.42644 -119.85140 27 ft 3 kts 107°
2026-05-04 00:10 34.42645 -119.85101 27 ft 5 kts 87°
2026-05-04 00:10 34.42646 -119.85047 27 ft 7 kts 87°
2026-05-04 00:11 34.42650 -119.84937 27 ft 24 kts 88°
2026-05-04 00:11 34.42654 -119.84698 27 ft 26 kts 76°
2026-05-04 00:11 34.42799 -119.84622 27 ft 16 kts 19°
2026-05-04 00:11 34.42862 -119.84510 27 ft 17 kts 65°
2026-05-04 00:12 34.42918 -119.84375 27 ft 18 kts 63°
2026-05-04 00:12 34.42977 -119.84227 27 ft 19 kts 65°
2026-05-04 00:12 34.43036 -119.84071 27 ft 21 kts 64°
2026-05-04 00:12 34.43093 -119.83904 27 ft 22 kts 71°
2026-05-04 00:13 34.43145 -119.83723 27 ft 23 kts 70°
2026-05-04 00:13 34.43199 -119.83596 27 ft 11 kts 24°
2026-05-04 00:13 34.43274 -119.83611 27 ft 7 kts 342°
2026-05-04 00:13 34.43281 -119.83605 27 ft 0 kts 159°